User: anonymous   Login
Location: Unspecified
(0.0000°N, 0.0000°E)
Time: 21:51:05
(UTC+00:00)
Language:

Cosmos 2346 - Orbit

View from above orbital plane
View from above orbital plane
View from above satellite
View from above satellite

Ground track
Ground track

The orbit data is extracted from the following two-line orbital elements,

1 24953U 97052A   18018.42786983  .00000028  00000-0  12855-4 0  9996
2 24953  82.9240 127.2376 0038651 317.9770 109.2106 13.79590032 23165
Epoch (UTC): 18 January 2018 10:16:07
Eccentricity: 0.0038651
inclination: 82.9240°
perigee height: 937 km
apogee height: 994 km
right ascension of ascending node: 127.2376°
argument of perigee: 317.9770°
revolutions per day: 13.79590032
mean anomaly at epoch: 109.2106°
orbit number at epoch: 2316

The dashed part of the orbit path shows where the satellite is in the earth's shadow,  

DLR